Find Starlink 3088

NORAD ID: 49163 Int'l Des: 2021-082 Owner: SPXS Country: US Constellation: starlink operational
LEOCIRCULAR

实时位置

正在加载3D地球...

关于 Starlink 3088

正在加载描述...

即将过境

Passes for default location (London). Set your location on the main map for personalized predictions.

高度历史

Loading altitude history...

两行轨道根数

1 49163U 21082AK 26106.92140773 .00000378 00000-0 40287-4 0 9997
2 49163 70.0005 178.9644 0003531 272.2309 87.8445 14.97519164253332
Epoch: Apr 16, 2026 • Age: 13 hours

当前状态

高度 588.5 km
速度 7.57 km/s
星下点 69.76°N, 97.42°W
发射日期 Sep 14, 2021
运行时间 4.5 years
类型 internet

技术详情

分类 Payload
质量 297.00 kg
干质量 275.00 kg
总质量 297.00 kg
长度 0.20 m
直径 2.80 m
跨度 9.00 m
形状 Box + pan
制造商 SPXS
平台类型 Starlink
阶段状态 In Orbit
所有者/国家 SPXS/US

Most Searched